• In Uzbekistan
  • List of Countries
  • For 7 days
  • Water Temperature
  • Satellite Maps
  • Weather Map
  • Weather Widgets
  • user-avatar
    Login

    Hourly Weather Moknin

    Today, 14 December, Friday

    Time Temperature Precipitation Wind Pressure Humidity
    00:00 +15°C° 0 mm 9 mps 756 mmHg 36%
    01:00 +13°C° 0 mm 9 mps 756 mmHg 37%
    02:00 +13°C° 0 mm 9 mps 755 mmHg 37%
    03:00 +13°C° 0 mm 8 mps 755 mmHg 37%
    04:00 +12°C° 0 mm 8 mps 754 mmHg 38%
    05:00 +12°C° 0 mm 8 mps 754 mmHg 38%
    06:00 +12°C° 0 mm 7 mps 754 mmHg 39%
    07:00 +12°C° 0 mm 7 mps 754 mmHg 39%
    08:00 +12°C° 0 mm 7 mps 753 mmHg 38%
    09:00 +14°C° 0 mm 7 mps 753 mmHg 37%
    10:00 +14°C° 0 mm 7 mps 753 mmHg 36%
    11:00 +14°C° 0.2 mm 6 mps 753 mmHg 41%
    12:00 +14°C° 0.2 mm 5 mps 753 mmHg 47%
    13:00 +14°C° 0.2 mm 4 mps 753 mmHg 53%
    14:00 +15°C° 0 mm 4 mps 753 mmHg 47%
    15:00 +17°C° 0 mm 4 mps 753 mmHg 40%
    16:00 +18°C° 0 mm 4 mps 753 mmHg 34%
    17:00 +17°C° 0 mm 4 mps 753 mmHg 41%
    18:00 +15°C° 0 mm 5 mps 753 mmHg 48%
    19:00 +13°C° 0 mm 5 mps 754 mmHg 55%
    20:00 +13°C° 0.5 mm 6 mps 754 mmHg 62%
    21:00 +12°C° 0.5 mm 7 mps 754 mmHg 68%
    22:00 +11°C° 0.5 mm 8 mps 754 mmHg 75%
    23:00 +11°C° 1.1 mm 8 mps 754 mmHg 77%

    Tomorrow, 15 December, Saturday

    Time Temperature Precipitation Wind Pressure Humidity
    00:00 +12°C° 1.1 mm 8 mps 755 mmHg 78%
    01:00 +12°C° 1.1 mm 8 mps 755 mmHg 80%
    02:00 +12°C° 0.8 mm 10 mps 755 mmHg 79%
    03:00 +12°C° 0.8 mm 11 mps 756 mmHg 79%
    04:00 +13°C° 0.8 mm 12 mps 756 mmHg 78%
    05:00 +12°C° 0.4 mm 13 mps 757 mmHg 74%
    06:00 +12°C° 0.4 mm 14 mps 758 mmHg 70%
    07:00 +11°C° 0.4 mm 15 mps 759 mmHg 66%
    08:00 +11°C° 0.1 mm 15 mps 760 mmHg 63%
    09:00 +13°C° 0.1 mm 14 mps 760 mmHg 59%
    10:00 +13°C° 0.1 mm 14 mps 761 mmHg 56%
    11:00 +13°C° 0 mm 14 mps 761 mmHg 53%
    12:00 +14°C° 0 mm 13 mps 761 mmHg 50%
    13:00 +14°C° 0 mm 13 mps 761 mmHg 47%
    14:00 +15°C° 0 mm 12 mps 762 mmHg 45%
    15:00 +15°C° 0 mm 12 mps 762 mmHg 44%
    16:00 +15°C° 0 mm 12 mps 762 mmHg 43%
    17:00 +14°C° 0 mm 11 mps 763 mmHg 49%
    18:00 +14°C° 0 mm 11 mps 763 mmHg 54%
    19:00 +13°C° 0 mm 10 mps 764 mmHg 60%
    20:00 +13°C° 0 mm 10 mps 764 mmHg 62%
    21:00 +13°C° 0 mm 10 mps 764 mmHg 65%
    22:00 +13°C° 0 mm 9 mps 765 mmHg 67%
    23:00 +13°C° 0 mm 9 mps 765 mmHg 69%

    Day after tomorrow, 16 December, Sunday

    Time Temperature Precipitation Wind Pressure Humidity
    00:00 +12°C° 0 mm 9 mps 765 mmHg 70%
    01:00 +12°C° 0 mm 8 mps 765 mmHg 72%
    02:00 +12°C° 0 mm 8 mps 765 mmHg 72%
    03:00 +12°C° 0 mm 8 mps 765 mmHg 73%
    04:00 +12°C° 0 mm 7 mps 765 mmHg 74%
    05:00 +12°C° 0 mm 7 mps 765 mmHg 75%
    06:00 +12°C° 0 mm 7 mps 766 mmHg 76%
    07:00 +13°C° 0 mm 6 mps 766 mmHg 77%
    08:00 +13°C° 0 mm 6 mps 766 mmHg 73%
    09:00 +14°C° 0 mm 6 mps 767 mmHg 68%
    10:00 +15°C° 0 mm 6 mps 767 mmHg 64%
    11:00 +16°C° 0 mm 5 mps 767 mmHg 61%
    12:00 +17°C° 0 mm 5 mps 766 mmHg 57%
    13:00 +17°C° 0 mm 5 mps 766 mmHg 54%
    14:00 +19°C° 0 mm 4 mps 766 mmHg 51%
    15:00 +19°C° 0 mm 3 mps 766 mmHg 48%
    16:00 +19°C° 0 mm 3 mps 765 mmHg 46%
    17:00 +19°C° 0 mm 2 mps 766 mmHg 48%
    18:00 +18°C° 0 mm 2 mps 766 mmHg 50%
    19:00 +17°C° 0 mm 2 mps 766 mmHg 53%
    20:00 +17°C° 0 mm 2 mps 766 mmHg 52%
    21:00 +17°C° 0 mm 2 mps 767 mmHg 51%
    22:00 +16°C° 0 mm 3 mps 767 mmHg 50%
    23:00 +16°C° 0 mm 3 mps 766 mmHg 50%

    17 December, Monday

    Time Temperature Precipitation Wind Pressure Humidity
    00:00 +15°C° 0 mm 4 mps 766 mmHg 49%
    01:00 +15°C° 0 mm 4 mps 766 mmHg 48%
    02:00 +15°C° 0 mm 4 mps 766 mmHg 49%
    03:00 +15°C° 0 mm 4 mps 765 mmHg 50%
    04:00 +15°C° 0 mm 4 mps 765 mmHg 51%
    05:00 +14°C° 0 mm 4 mps 765 mmHg 51%
    06:00 +14°C° 0 mm 3 mps 765 mmHg 51%
    07:00 +14°C° 0 mm 3 mps 765 mmHg 51%
    08:00 +16°C° 0 mm 3 mps 766 mmHg 48%
    09:00 +17°C° 0 mm 3 mps 766 mmHg 44%
    10:00 +19°C° 0 mm 3 mps 766 mmHg 41%
    11:00 +20°C° 0 mm 3 mps 766 mmHg 40%
    12:00 +21°C° 0 mm 3 mps 766 mmHg 39%
    13:00 +22°C° 0 mm 4 mps 765 mmHg 38%
    14:00 +22°C° 0 mm 4 mps 765 mmHg 40%
    15:00 +22°C° 0 mm 4 mps 765 mmHg 42%
    16:00 +22°C° 0 mm 4 mps 765 mmHg 44%
    17:00 +21°C° 0 mm 5 mps 765 mmHg 51%
    18:00 +20°C° 0 mm 5 mps 766 mmHg 57%
    19:00 +19°C° 0 mm 5 mps 766 mmHg 63%
    20:00 +17°C° 0 mm 6 mps 767 mmHg 65%
    21:00 +17°C° 0 mm 7 mps 767 mmHg 67%
    22:00 +16°C° 0 mm 7 mps 768 mmHg 69%
    23:00 +16°C° 0 mm 8 mps 768 mmHg 68%

    18 December, Tuesday

    Time Temperature Precipitation Wind Pressure Humidity
    00:00 +15°C° 0 mm 8 mps 768 mmHg 68%
    01:00 +15°C° 0 mm 8 mps 768 mmHg 67%
    02:00 +15°C° 0 mm 8 mps 768 mmHg 67%
    03:00 +15°C° 0 mm 8 mps 768 mmHg 66%
    04:00 +13°C° 0 mm 8 mps 768 mmHg 65%
    05:00 +13°C° 0 mm 8 mps 768 mmHg 67%
    06:00 +12°C° 0 mm 8 mps 768 mmHg 69%
    07:00 +12°C° 0 mm 8 mps 769 mmHg 71%
    08:00 +13°C° 0 mm 8 mps 769 mmHg 67%
    09:00 +13°C° 0 mm 8 mps 769 mmHg 63%
    10:00 +15°C° 0 mm 8 mps 770 mmHg 58%
    11:00 +15°C° 0 mm 8 mps 769 mmHg 55%
    12:00 +16°C° 0 mm 8 mps 769 mmHg 51%
    13:00 +17°C° 0 mm 8 mps 768 mmHg 47%
    14:00 +17°C° 0 mm 8 mps 768 mmHg 47%
    15:00 +17°C° 0 mm 7 mps 768 mmHg 48%
    16:00 +17°C° 0 mm 7 mps 768 mmHg 48%
    17:00 +16°C° 0 mm 7 mps 769 mmHg 52%
    18:00 +15°C° 0 mm 6 mps 769 mmHg 56%
    19:00 +14°C° 0 mm 6 mps 769 mmHg 60%
    20:00 +14°C° 0 mm 5 mps 769 mmHg 62%
    21:00 +13°C° 0 mm 5 mps 770 mmHg 64%
    22:00 +13°C° 0 mm 5 mps 770 mmHg 66%
    23:00 +13°C° 0 mm 4 mps 770 mmHg 68%

    19 December, Wednesday

    Time Temperature Precipitation Wind Pressure Humidity
    00:00 +12°C° 0 mm 4 mps 770 mmHg 70%
    01:00 +12°C° 0 mm 3 mps 770 mmHg 71%
    02:00 +12°C° 0 mm 3 mps 769 mmHg 73%
    03:00 +11°C° 0 mm 3 mps 769 mmHg 74%
    04:00 +12°C° 0 mm 2 mps 769 mmHg 75%
    05:00 +12°C° 0 mm 2 mps 769 mmHg 77%
    06:00 +10°C° 0 mm 2 mps 769 mmHg 78%
    07:00 +11°C° 0 mm 1 mps 769 mmHg 79%
    08:00 +12°C° 0 mm 1 mps 769 mmHg 73%
    09:00 +14°C° 0 mm 1 mps 769 mmHg 66%
    10:00 +15°C° 0 mm 1 mps 770 mmHg 60%
    11:00 +16°C° 0 mm 2 mps 769 mmHg 57%
    12:00 +17°C° 0 mm 3 mps 769 mmHg 54%
    13:00 +18°C° 0 mm 3 mps 768 mmHg 52%
    14:00 +18°C° 0 mm 4 mps 768 mmHg 51%
    15:00 +19°C° 0 mm 4 mps 767 mmHg 50%
    16:00 +19°C° 0 mm 4 mps 767 mmHg 49%
    17:00 +17°C° 0 mm 5 mps 767 mmHg 53%
    18:00 +16°C° 0 mm 5 mps 767 mmHg 56%
    19:00 +15°C° 0 mm 6 mps 767 mmHg 60%
    20:00 +15°C° 0 mm 6 mps 767 mmHg 60%
    21:00 +14°C° 0 mm 6 mps 767 mmHg 60%
    22:00 +14°C° 0 mm 6 mps 767 mmHg 59%
    23:00 +14°C° 0 mm 6 mps 767 mmHg 60%
    Show more